Hourly Data Report for October 20, 2015

All times are specified in Local Standard Time (LST). Add 1 hour to adjust for Daylight Saving Time where and when it is observed.

RANKIN INLET A
NUNAVUT

62°48'38.000" N
92°06'53.000" W
32.30 m
2303405
71083
YRT

Download Data

Hourly Data (October 2015)
Hourly Data Report for October 20, 2015
Temp Definition
°C
Dew Point Temp Definition
°C
Rel Hum Definition
%
Wind Dir Definition
10's deg

Wind Spd Definition
km/h
Visibility Definition
km
Stn Press Definition
kPa
Hmdx Definition


Wind Chill Definition


Weather Definition


TIME
00:00 Legend Double Dagger -11.6 -14.6 79 34 41 24.1 101.34   -23 Blowing Snow
01:00 Legend Double Dagger -12.0 -14.8 80 34 36 24.1 101.43   -23 LegendNANA
02:00 Legend Double Dagger -11.9 -14.5 81 34 35 24.1 101.51   -23 LegendNANA
03:00 Legend Double Dagger -12.0 -14.6 81 34 37 24.1 101.56   -23 Clear
04:00 Legend Double Dagger -12.1 -14.7 81 35 32 24.1 101.65   -23 LegendNANA
05:00 Legend Double Dagger -12.1 -14.7 81 35 32 24.1 101.71   -23 LegendNANA
06:00 Legend Double Dagger -12.2 -14.8 81 35 28 24.1 101.75   -22 LegendNANA
07:00 Legend Double Dagger -12.7 -15.2 82 35 25 24.1 101.81   -22 LegendNANA
08:00 Legend Double Dagger -12.6 -15.1 82 35 27 24.1 101.85   -22 LegendNANA
09:00 Legend Double Dagger -11.9 -14.4 82 36 23 24.1 101.86   -21 Clear
10:00 Legend Double Dagger -11.3 -14.1 80 35 25 24.1 101.90   -20 LegendNANA
11:00 Legend Double Dagger -10.5 -13.5 79 34 18 24.1 101.95   -18 LegendNANA
12:00 Legend Double Dagger -9.8 -13.0 78 34 21 24.1 101.97   -18 Mainly Clear
13:00 Legend Double Dagger -9.6 -13.2 75 34 20 24.1 101.97   -17 LegendNANA
14:00 Legend Double Dagger -9.8 -13.4 75 32 14 24.1 102.00   -16 LegendNANA
15:00 Legend Double Dagger -10.8 -14.1 77 31 14 24.1 102.01   -17 Mainly Clear
16:00 Legend Double Dagger -11.4 -14.7 77 31 12 24.1 102.00   -18 LegendNANA
17:00 Legend Double Dagger -11.4 -14.5 78 31 11 24.1 102.01   -17 LegendNANA
18:00 Legend Double Dagger -12.4 -14.6 84 31 13 24.1 102.01   -19 Mainly Clear
19:00 Legend Double Dagger -12.0 -14.3 83 32 10 24.1 102.02   -18 LegendNANA
20:00 Legend Double Dagger -12.2 -14.4 84 28 10 24.1 102.03   -18 LegendNANA
21:00 Legend Double Dagger -10.5 -13.6 78 25 17 24.1 101.99   -18 Mainly Clear
22:00 Legend Double Dagger -10.2 -13.3 78 25 17 24.1 101.98   -17 LegendNANA
23:00 Legend Double Dagger -9.7 -13.3 75 24 21 24.1 101.95   -18 LegendNANA

Notes on Data Quality.

Legend

  • E = Estimated
  • M = Missing
  • NA = Not Available
  • ‡ = Partner data that is not subject to review by the National Climate Archives
Date modified: